sat.trackr.live / text

‹ back to catalog

STARLINK-5526

NORAD 56496 · 2023-064BA

PAYLOAD ACTIVE UNKNOWN

§ Identity

Operator
Country
US
Launch date
2023-05-10
Launch site
AFWTR
Launch vehicle
Mass (kg)
RCS (m²)

Purposes: comms

External: N2YO · Heavens-Above · Gunter

§ Orbital elements

Epoch: 2026-09-20T11:39:54.637056Z

Period
96.11 min
Inclination
69.9996°
Eccentricity
0.0003340
Mean motion
14.98325135 rev/d
Perigee alt
569.7 km
Apogee alt
574.4 km
Semi-major
6,950.2 km
B*
-8.8749e-5
RAAN
333.2067°
Arg perigee
263.7253°
Mean anomaly
96.3526°
Rev number
18,541

§ Raw data

STARLINK-55261 56496U 23064BA  26263.48604904 -.00001152  00000+0 -88749-4 0  99992 56496  69.9996 333.2067 0003340 263.7253  96.3526 14.98325135185413

JSON: /api/v1/satellites/56496 · /tle

For live sub-satellite position, see the globe view (requires WebGL).

§ Visibility from observer

Set your observer location to see the next 7 days of passes ≥ 10°. The values pass through the URL so the page stays shareable.

No JS? Fill the form by hand. The geolocation button needs JavaScript.